Orbital Elements at Epoch 2459200.5 (2020-Dec-17.0) TDB
Reference: JPL 22 (heliocentric ecliptic J2000)
Element | Value | Uncertainty (1-sigma) | Units |
e | .1050315959912528 | 7.1198e-08 | |
a | 2.642739699719802 | 1.9046e-08 | au |
q | 2.365168531268787 | 1.9218e-07 | au |
i | 13.40691778889359 | 5.4036e-06 | deg |
node | 17.58688517736759 | 2.0063e-05 | deg |
peri | 168.3322499948477 | 3.0079e-05 | deg |
M | 356.7503613229823 | 2.5882e-05 | deg |
tp | 2459214.664869715369 (2020-Dec-31.16486972) | 0.00011288 | TDB |
period | 1569.206180858414 4.30 | 1.6964e-05 4.644e-08 | d yr |
n | .229415359429101 | 2.4801e-09 | deg/d |
Q | 2.920310868170818 | 2.1047e-08 | au |
|
| | Orbit Determination Parameters
Additional Information
|